Weather History for KLAM - November, 2012

Change the Weather History Date:

Tuesday, November 27, 2012

  Actual Average Record
Temperature  
Mean Temperature 40 °F -  
Max Temperature 52 °F 39 °F 61 °F (1954)
Min Temperature 28 °F 19 °F -11 °F (1976)
Degree Days  
Heating Degree Days 25    
Moisture  
Dew Point 15 °F    
Average Humidity 42    
Maximum Humidity 74    
Minimum Humidity 18    
Precipitation  
Precipitation 0.00 in - - ()
Sea Level Pressure  
Sea Level Pressure 30.38 in    
Wind  
Wind Speed 4 mph (West)    
Max Wind Speed 9 mph    
Max Gust Speed -    
Visibility 10 miles    
Events      
Averages and records for this station are not official NWS values.
T = Trace of Precipitation, MM = Missing Value Source: NWS Daily Summary

Daily Weather History Graph

Daily Weather History Graph

Search for Another Location

Airport or City:

Trip Planner

Search our weather history database for the weather conditions in past years. The results will help you decide how hot, cold, wet, or windy it might be!

Date:

Astronomy

Nov. 27, 2012 Rise Set
Actual Time 6:53 AM MST 4:51 PM MST
Civil Twilight 6:25 AM MST 5:19 PM MST
Nautical Twilight 5:54 AM MST 5:51 PM MST
Astronomical Twilight 5:23 AM MST 6:22 PM MST
Moon 4:24 PM MST (11/27) 6:01 AM MST (11/27)
Length of Visible Light 10h 54m
Length of Day
9h 58m
Waxing Gibbous, 99% of the Moon is Illuminated
Nov 27
Waxing Gibbous
Nov 28
Full
Dec 6
Last Quarter
Dec 13
New
Dec 19
First Quarter

Hourly Weather History & Observations

Time (MST) Temp. Windchill Dew Point Humidity Pressure Visibility Wind Dir Wind Speed Gust Speed Precip Events Conditions
12:15 AM 31.5 °F 23.5 °F 23.0 °F 71% 30.37 in 10.0 mi SW 9.2 mph - N/A   Clear
12:35 AM 31.6 °F 24.4 °F 22.8 °F 70% 30.37 in 10.0 mi SSW 8.1 mph - N/A   Clear
12:55 AM 31.1 °F 25.4 °F 22.3 °F 70% 30.36 in 10.0 mi South 5.8 mph - N/A   Clear
1:15 AM 30.9 °F 25.2 °F 22.6 °F 71% 30.36 in 10.0 mi South 5.8 mph - N/A   Clear
1:35 AM 30.2 °F 26.7 °F 22.5 °F 73% 30.36 in 10.0 mi South 3.5 mph - N/A   Clear
1:55 AM 29.8 °F 23.9 °F 22.3 °F 73% 30.37 in 10.0 mi SSW 5.8 mph - N/A   Clear
2:15 AM 30.4 °F 25.6 °F 23.0 °F 74% 30.36 in 10.0 mi South 4.6 mph - N/A   Clear
2:35 AM 30.7 °F - 23.0 °F 73% 30.37 in 10.0 mi Calm Calm - N/A   Clear
2:55 AM 31.1 °F - 23.5 °F 74% 30.37 in 10.0 mi Calm Calm - N/A   Clear
3:35 AM 30.9 °F - 23.0 °F 72% 30.36 in 10.0 mi Calm Calm - N/A   Clear
3:55 AM 31.6 °F - 22.5 °F 69% 30.35 in 10.0 mi Calm Calm - N/A   Clear
4:15 AM 31.6 °F - 19.8 °F 62% 30.36 in 10.0 mi Calm Calm - N/A   Clear
4:35 AM 31.3 °F 27.9 °F 19.6 °F 62% 30.37 in 10.0 mi North 3.5 mph - N/A   Clear
4:55 AM 30.9 °F 27.5 °F 19.2 °F 62% 30.37 in 10.0 mi NNW 3.5 mph - N/A   Clear
5:15 AM 32.0 °F 27.5 °F 20.1 °F 62% 30.38 in 10.0 mi NNE 4.6 mph - N/A   Clear
5:35 AM 30.0 °F 26.5 °F 18.3 °F 62% 30.38 in 10.0 mi NNE 3.5 mph - N/A   Clear
5:55 AM 30.6 °F 27.1 °F 21.6 °F 69% 30.38 in 10.0 mi NNE 3.5 mph - N/A   Clear
6:15 AM 30.4 °F 26.9 °F 21.9 °F 71% 30.39 in 10.0 mi North 3.5 mph - N/A   Clear
6:35 AM 30.4 °F 26.9 °F 21.9 °F 71% 30.39 in 10.0 mi North 3.5 mph - N/A   Clear
6:55 AM 28.9 °F 25.2 °F 18.5 °F 65% 30.41 in 10.0 mi North 3.5 mph - N/A   Clear
7:15 AM 30.4 °F 25.6 °F 20.7 °F 67% 30.41 in 10.0 mi NNW 4.6 mph - N/A   Clear
7:35 AM 32.5 °F 29.3 °F 17.2 °F 53% 30.41 in 10.0 mi NW 3.5 mph - N/A   Clear
7:55 AM 34.5 °F - 16.0 °F 47% 30.41 in 10.0 mi Calm Calm - N/A   Clear
8:15 AM 32.7 °F - 19.2 °F 58% 30.42 in 10.0 mi Calm Calm - N/A   Clear
8:35 AM 32.0 °F - 19.6 °F 60% 30.43 in 10.0 mi Calm Calm - N/A   Clear
8:55 AM 33.6 °F - 19.6 °F 56% 30.43 in 10.0 mi Calm Calm - N/A   Clear
9:15 AM 34.9 °F - 19.8 °F 54% 30.43 in 10.0 mi Calm Calm - N/A   Clear
9:35 AM 37.0 °F - 20.1 °F 50% 30.44 in 10.0 mi Calm Calm - N/A   Clear
9:55 AM 37.6 °F - 19.6 °F 48% 30.44 in 10.0 mi Calm Calm - N/A   Clear
10:15 AM 39.4 °F - 19.0 °F 44% 30.43 in 10.0 mi Calm Calm - N/A   Clear
10:35 AM 42.1 °F - 17.8 °F 38% 30.43 in 10.0 mi Calm Calm - N/A   Clear
10:55 AM 42.4 °F 40.7 °F 18.0 °F 37% 30.43 in 10.0 mi ENE 3.5 mph - N/A   Clear
11:15 AM 43.2 °F - 17.2 °F 35% 30.41 in 10.0 mi Calm Calm - N/A   Clear
11:35 AM 45.5 °F - 16.2 °F 31% 30.40 in 10.0 mi Calm Calm - N/A   Clear
11:55 AM 46.6 °F - 15.6 °F 29% 30.39 in 10.0 mi ENE 3.5 mph - N/A   Clear
12:15 PM 48.2 °F - 15.1 °F 27% 30.38 in 10.0 mi East 3.5 mph - N/A   Clear
12:35 PM 49.1 °F - 13.8 °F 24% 30.37 in 10.0 mi Calm Calm - N/A   Clear
12:55 PM 50.4 °F - 10.2 °F 20% 30.37 in 10.0 mi Calm Calm - N/A   Clear
1:15 PM 51.3 °F - 9.7 °F 19% 30.36 in 10.0 mi ENE 5.8 mph - N/A   Clear
1:35 PM 51.8 °F - 10.2 °F 19% 30.35 in 10.0 mi East 4.6 mph - N/A   Clear
1:55 PM 52.2 °F - 9.9 °F 18% 30.35 in 10.0 mi East 4.6 mph - N/A   Clear
2:15 PM 52.3 °F - 9.7 °F 18% 30.35 in 10.0 mi ENE 4.6 mph - N/A   Clear
2:35 PM 52.5 °F - 9.9 °F 18% 30.35 in 10.0 mi ESE 5.8 mph - N/A   Clear
2:55 PM 52.5 °F - 9.5 °F 18% 30.35 in 10.0 mi South 3.5 mph - N/A   Clear
3:15 PM 52.7 °F - 9.5 °F 18% 30.35 in 10.0 mi SSE 5.8 mph - N/A   Clear
3:35 PM 52.5 °F - 10.8 °F 19% 30.35 in 10.0 mi SE 4.6 mph - N/A   Clear
3:55 PM 52.3 °F - 11.3 °F 19% 30.35 in 10.0 mi South 4.6 mph - N/A   Clear
4:15 PM 51.8 °F - 11.3 °F 20% 30.35 in 10.0 mi SSE 3.5 mph - N/A   Clear
4:55 PM 50.2 °F - 12.2 °F 22% 30.35 in 10.0 mi Calm Calm - N/A   Clear
5:15 PM 49.8 °F - 12.2 °F 22% 30.35 in 10.0 mi Calm Calm - N/A   Clear
5:35 PM 49.3 °F - 12.7 °F 23% 30.36 in 10.0 mi Calm Calm - N/A   Clear
5:55 PM 47.7 °F - 12.9 °F 25% 30.36 in 10.0 mi Calm Calm - N/A   Clear
6:15 PM 47.1 °F - 12.7 °F 25% 30.36 in 10.0 mi West 5.8 mph - N/A   Clear
6:35 PM 48.2 °F - 12.9 °F 24% 30.37 in 10.0 mi West 4.6 mph - N/A   Clear
6:55 PM 46.2 °F 43.3 °F 12.0 °F 25% 30.37 in 10.0 mi West 5.8 mph - N/A   Clear
7:35 PM 45.5 °F 43.2 °F 10.2 °F 24% 30.38 in 10.0 mi West 4.6 mph - N/A   Clear
7:55 PM 44.6 °F 41.4 °F 9.3 °F 24% 30.38 in 10.0 mi West 5.8 mph - N/A   Clear
8:15 PM 45.0 °F 41.2 °F 9.5 °F 24% 30.37 in 10.0 mi West 6.9 mph - N/A   Clear
8:35 PM 45.1 °F 42.0 °F 7.5 °F 22% 30.37 in 10.0 mi West 5.8 mph - N/A   Clear
8:55 PM 45.1 °F 41.4 °F 8.6 °F 23% 30.38 in 10.0 mi West 6.9 mph - N/A   Clear
9:15 PM 46.6 °F - 7.9 °F 21% 30.38 in 10.0 mi West 5.8 mph - N/A   Clear
9:35 PM 44.6 °F 41.4 °F 7.2 °F 22% 30.38 in 10.0 mi West 5.8 mph - N/A   Clear
9:55 PM 45.9 °F 43.6 °F 6.8 °F 20% 30.38 in 10.0 mi WNW 4.6 mph - N/A   Clear
10:15 PM 47.8 °F - 5.5 °F 18% 30.37 in 10.0 mi Calm Calm - N/A   Clear
10:55 PM 44.4 °F - 4.8 °F 20% 30.38 in 10.0 mi Calm Calm - N/A   Clear
11:55 PM 41.9 °F - 6.8 °F 24% 30.40 in 10.0 mi Calm Calm - N/A   Clear